Location: Berville
(49.1893°N, 2.0748°E)
Time: 07:07:42
(UTC+00:00)

DELTA 2 DEB (DPAF) - Pass Details

Date: 08 February 2023
Orbit: 625 x 629 km, 98.4° (Epoch: 21 March)

Event Time Altitude Azimuth Distance (km) Brightness Sun altitude
Rises 17:57:34 0° 12° (NNE) 2,932 7.3 -9.9°
Reaches altitude 10° 17:59:46 10° 10° (N) 2,021 6.5 -10.2°
Maximum altitude 18:04:08 68° 288° (WNW) 684 4.5 -10.9°
Drops below altitude 10° 18:08:29 10° 206° (SSW) 2,011 7.2 -11.6°
Sets 18:10:41 0° 204° (SSW) 2,916 8.0 -12.0°
